Year,Month,Day,Hour,Minute,Value (Times are PST for temperature in C)
2022,10,01,00,00,12.40
2022,10,01,00,01,12.40
2022,10,01,00,02,12.40
2022,10,01,00,03,12.40
2022,10,01,00,04,12.40
2022,10,01,00,05,12.50
2022,10,01,00,06,12.50
2022,10,01,00,07,12.50
2022,10,01,00,08,12.50
2022,10,01,00,09,12.50
2022,10,01,00,10,12.50
2022,10,01,00,11,12.50
2022,10,01,00,12,12.50
2022,10,01,00,13,12.40
2022,10,01,00,14,12.40
2022,10,01,00,15,12.40
2022,10,01,00,16,12.30
2022,10,01,00,17,12.20
2022,10,01,00,18,12.10
2022,10,01,00,19,12.00
2022,10,01,00,20,11.90
2022,10,01,00,21,11.90
2022,10,01,00,22,11.90
2022,10,01,00,23,11.80
2022,10,01,00,24,11.80
2022,10,01,00,25,11.80
2022,10,01,00,26,11.80
2022,10,01,00,27,11.80
2022,10,01,00,28,11.80
2022,10,01,00,29,11.80
2022,10,01,00,30,11.90
2022,10,01,00,31,11.90
2022,10,01,00,32,11.90
2022,10,01,00,33,11.90
2022,10,01,00,34,11.90
2022,10,01,00,35,11.90
2022,10,01,00,36,11.90
2022,10,01,00,37,12.00
2022,10,01,00,38,12.00
2022,10,01,00,39,12.00
2022,10,01,00,40,12.00
2022,10,01,00,41,12.00
2022,10,01,00,42,12.10
2022,10,01,00,43,12.10
2022,10,01,00,44,12.10
2022,10,01,00,45,12.10
2022,10,01,00,46,12.10
2022,10,01,00,47,12.10
2022,10,01,00,48,12.00
2022,10,01,00,49,12.00
2022,10,01,00,50,11.90
2022,10,01,00,51,11.90
2022,10,01,00,52,11.90
2022,10,01,00,53,11.90
2022,10,01,00,54,11.80
2022,10,01,00,55,11.80
2022,10,01,00,56,11.80
2022,10,01,00,57,11.80
2022,10,01,00,58,11.90
2022,10,01,00,59,11.90
2022,10,01,01,00,11.90
2022,10,01,01,01,11.90
2022,10,01,01,02,11.80
2022,10,01,01,03,11.80
2022,10,01,01,04,11.80
2022,10,01,01,05,11.80
2022,10,01,01,06,11.70
2022,10,01,01,07,11.80
2022,10,01,01,08,11.80
2022,10,01,01,09,11.80
2022,10,01,01,10,11.80
2022,10,01,01,11,11.80
2022,10,01,01,12,11.80
2022,10,01,01,13,11.80
2022,10,01,01,14,11.80
2022,10,01,01,15,11.80
2022,10,01,01,16,11.80
2022,10,01,01,17,11.80
2022,10,01,01,18,11.80
2022,10,01,01,19,11.80
2022,10,01,01,20,11.80
2022,10,01,01,21,11.80
2022,10,01,01,22,11.70
2022,10,01,01,23,11.70
2022,10,01,01,24,11.70
2022,10,01,01,25,11.60
2022,10,01,01,26,11.60
2022,10,01,01,27,11.60
2022,10,01,01,28,11.60
2022,10,01,01,29,11.60
2022,10,01,01,30,11.60
2022,10,01,01,31,11.50
2022,10,01,01,32,11.50
2022,10,01,01,33,11.50
2022,10,01,01,34,11.40
2022,10,01,01,35,11.50
2022,10,01,01,36,11.50
2022,10,01,01,37,11.50
2022,10,01,01,38,11.60
2022,10,01,01,39,11.60
2022,10,01,01,40,11.60
2022,10,01,01,41,11.60
2022,10,01,01,42,11.70
2022,10,01,01,43,11.70
2022,10,01,01,44,11.70
2022,10,01,01,45,11.70
2022,10,01,01,46,11.70
2022,10,01,01,47,11.60
2022,10,01,01,48,11.60
2022,10,01,01,49,11.60
2022,10,01,01,50,11.60
2022,10,01,01,51,11.60
2022,10,01,01,52,11.60
2022,10,01,01,53,11.60
2022,10,01,01,54,11.60
2022,10,01,01,55,11.60
2022,10,01,01,56,11.60
2022,10,01,01,57,11.60
2022,10,01,01,58,11.60
2022,10,01,01,59,11.60
2022,10,01,02,00,11.60
2022,10,01,02,01,11.60
2022,10,01,02,02,11.60
2022,10,01,02,03,11.60
2022,10,01,02,04,11.50
2022,10,01,02,05,11.50
2022,10,01,02,06,11.50
2022,10,01,02,07,11.40
2022,10,01,02,08,11.40
2022,10,01,02,09,11.40
2022,10,01,02,10,11.40
2022,10,01,02,11,11.40
2022,10,01,02,12,11.40
2022,10,01,02,13,11.40
2022,10,01,02,14,11.30
2022,10,01,02,15,11.30
2022,10,01,02,16,11.30
2022,10,01,02,17,11.30
2022,10,01,02,18,11.30
2022,10,01,02,19,11.30
2022,10,01,02,20,11.20
2022,10,01,02,21,11.20
2022,10,01,02,22,11.20
2022,10,01,02,23,11.20
2022,10,01,02,24,11.20
2022,10,01,02,25,11.20
2022,10,01,02,26,11.20
2022,10,01,02,27,11.20
2022,10,01,02,28,11.20
2022,10,01,02,29,11.20
2022,10,01,02,30,11.20
2022,10,01,02,31,11.20
2022,10,01,02,32,11.30
2022,10,01,02,33,11.20
2022,10,01,02,34,11.20
2022,10,01,02,35,11.20
2022,10,01,02,36,11.20
2022,10,01,02,37,11.20
2022,10,01,02,38,11.20
2022,10,01,02,39,11.20
2022,10,01,02,40,11.20
2022,10,01,02,41,11.20
2022,10,01,02,42,11.20
2022,10,01,02,43,11.20
2022,10,01,02,44,11.20
2022,10,01,02,45,11.20
2022,10,01,02,46,11.30
2022,10,01,02,47,11.30
2022,10,01,02,48,11.30
2022,10,01,02,49,11.30
2022,10,01,02,50,11.30
2022,10,01,02,51,11.30
2022,10,01,02,52,11.30
2022,10,01,02,53,11.30
2022,10,01,02,54,11.30
2022,10,01,02,55,11.30
2022,10,01,02,56,11.30
2022,10,01,02,57,11.30
2022,10,01,02,58,11.20
2022,10,01,02,59,11.20
2022,10,01,03,00,11.20
2022,10,01,03,01,11.20
2022,10,01,03,02,11.20
2022,10,01,03,03,11.20
2022,10,01,03,04,11.10
2022,10,01,03,05,11.10
2022,10,01,03,06,11.00
2022,10,01,03,07,11.00
2022,10,01,03,08,11.00
2022,10,01,03,09,11.00
2022,10,01,03,10,11.00
2022,10,01,03,11,11.00
2022,10,01,03,12,11.00
2022,10,01,03,13,11.10
2022,10,01,03,14,11.10
2022,10,01,03,15,11.10
2022,10,01,03,16,11.10
2022,10,01,03,17,11.10
2022,10,01,03,18,11.10
2022,10,01,03,19,11.10
2022,10,01,03,20,11.10
2022,10,01,03,21,11.10
2022,10,01,03,22,11.10
2022,10,01,03,23,11.10
2022,10,01,03,24,11.10
2022,10,01,03,25,11.10
2022,10,01,03,26,11.10
2022,10,01,03,27,11.00
2022,10,01,03,28,11.00
2022,10,01,03,29,11.00
2022,10,01,03,30,10.90
2022,10,01,03,31,10.90
2022,10,01,03,32,10.90
2022,10,01,03,33,10.90
2022,10,01,03,34,10.80
2022,10,01,03,35,10.80
2022,10,01,03,36,10.80
2022,10,01,03,37,10.70
2022,10,01,03,38,10.70
2022,10,01,03,39,10.70
2022,10,01,03,40,10.70
2022,10,01,03,41,10.70
2022,10,01,03,42,10.70
2022,10,01,03,43,10.60
2022,10,01,03,44,10.60
2022,10,01,03,45,10.60
2022,10,01,03,46,10.60
2022,10,01,03,47,10.60
2022,10,01,03,48,10.60
2022,10,01,03,49,10.60
2022,10,01,03,50,10.60
2022,10,01,03,51,10.60
2022,10,01,03,52,10.60
2022,10,01,03,53,10.60
2022,10,01,03,54,10.60
2022,10,01,03,55,10.60
2022,10,01,03,56,10.70
2022,10,01,03,57,10.70
2022,10,01,03,58,10.70
2022,10,01,03,59,10.70
2022,10,01,04,00,10.70
2022,10,01,04,01,10.80
2022,10,01,04,02,10.80
2022,10,01,04,03,10.80
2022,10,01,04,04,10.80
2022,10,01,04,05,10.90
2022,10,01,04,06,10.90
2022,10,01,04,07,10.90
2022,10,01,04,08,10.90
2022,10,01,04,09,10.90
2022,10,01,04,10,10.90
2022,10,01,04,11,10.90
2022,10,01,04,12,10.90
2022,10,01,04,13,10.90
2022,10,01,04,14,10.90
2022,10,01,04,15,10.80
2022,10,01,04,16,10.80
2022,10,01,04,17,10.80
2022,10,01,04,18,10.80
2022,10,01,04,19,10.80
2022,10,01,04,20,10.80
2022,10,01,04,21,10.70
2022,10,01,04,22,10.70
2022,10,01,04,23,10.70
2022,10,01,04,24,10.60
2022,10,01,04,25,10.60
2022,10,01,04,26,10.50
2022,10,01,04,27,10.40
2022,10,01,04,28,10.50
2022,10,01,04,29,10.50
2022,10,01,04,30,10.50
2022,10,01,04,31,10.60
2022,10,01,04,32,10.60
2022,10,01,04,33,10.60
2022,10,01,04,34,10.50
2022,10,01,04,35,10.50
2022,10,01,04,36,10.40
2022,10,01,04,37,10.40
2022,10,01,04,38,10.40
2022,10,01,04,39,10.30
2022,10,01,04,40,10.30
2022,10,01,04,41,10.30
2022,10,01,04,42,10.20
2022,10,01,04,43,10.20
2022,10,01,04,44,10.20
2022,10,01,04,45,10.10
2022,10,01,04,46,10.10
2022,10,01,04,47,10.00
2022,10,01,04,48,10.00
2022,10,01,04,49,9.90
2022,10,01,04,50,9.90
2022,10,01,04,51,9.90
2022,10,01,04,52,9.80
2022,10,01,04,53,9.80
2022,10,01,04,54,9.80
2022,10,01,04,55,9.80
2022,10,01,04,56,9.80
2022,10,01,04,57,9.80
2022,10,01,04,58,9.90
2022,10,01,04,59,9.90
2022,10,01,05,00,9.90
2022,10,01,05,01,9.90
2022,10,01,05,02,9.90
2022,10,01,05,03,9.90
2022,10,01,05,04,9.90
2022,10,01,05,05,10.00
2022,10,01,05,06,10.00
2022,10,01,05,07,10.00
2022,10,01,05,08,10.00
2022,10,01,05,09,10.00
2022,10,01,05,10,10.10
2022,10,01,05,11,10.10
2022,10,01,05,12,10.10
2022,10,01,05,13,10.10
2022,10,01,05,14,10.10
2022,10,01,05,15,10.20
2022,10,01,05,16,10.20
2022,10,01,05,17,10.20
2022,10,01,05,18,10.30
2022,10,01,05,19,10.30
2022,10,01,05,20,10.30
2022,10,01,05,21,10.30
2022,10,01,05,22,10.30
2022,10,01,05,23,10.30
2022,10,01,05,24,10.30
2022,10,01,05,25,10.30
2022,10,01,05,26,10.30
2022,10,01,05,27,10.30
2022,10,01,05,28,10.30
2022,10,01,05,29,10.30
2022,10,01,05,30,10.40
2022,10,01,05,31,10.40
2022,10,01,05,32,10.40
2022,10,01,05,33,10.50
2022,10,01,05,34,10.50
2022,10,01,05,35,10.60
2022,10,01,05,36,10.60
2022,10,01,05,37,10.60
2022,10,01,05,38,10.60
2022,10,01,05,39,10.60
2022,10,01,05,40,10.60
2022,10,01,05,41,10.60
2022,10,01,05,42,10.60
2022,10,01,05,43,10.60
2022,10,01,05,44,10.60
2022,10,01,05,45,10.60
2022,10,01,05,46,10.60
2022,10,01,05,47,10.60
2022,10,01,05,48,10.60
2022,10,01,05,49,10.60
2022,10,01,05,50,10.60
2022,10,01,05,51,10.60
2022,10,01,05,52,10.60
2022,10,01,05,53,10.60
2022,10,01,05,54,10.60
2022,10,01,05,55,10.60
2022,10,01,05,56,10.60
2022,10,01,05,57,10.60
2022,10,01,05,58,10.60
2022,10,01,05,59,10.60
2022,10,01,06,00,10.60
2022,10,01,06,01,10.60
2022,10,01,06,02,10.60
2022,10,01,06,03,10.60
2022,10,01,06,04,10.60
2022,10,01,06,05,10.60
2022,10,01,06,06,10.60
2022,10,01,06,07,10.60
2022,10,01,06,08,10.60
2022,10,01,06,09,10.60
2022,10,01,06,10,10.70
2022,10,01,06,11,10.70
2022,10,01,06,12,10.70
2022,10,01,06,13,10.70
2022,10,01,06,14,10.70
2022,10,01,06,15,10.70
2022,10,01,06,16,10.70
2022,10,01,06,17,10.80
2022,10,01,06,18,10.80
2022,10,01,06,19,10.80
2022,10,01,06,20,10.80
2022,10,01,06,21,10.80
2022,10,01,06,22,10.80
2022,10,01,06,23,10.80
2022,10,01,06,24,10.70
2022,10,01,06,25,10.70
2022,10,01,06,26,10.60
2022,10,01,06,27,10.60
2022,10,01,06,28,10.50
2022,10,01,06,29,10.40
2022,10,01,06,30,10.40
2022,10,01,06,31,10.30
2022,10,01,06,32,10.30
2022,10,01,06,33,10.30
2022,10,01,06,34,10.20
2022,10,01,06,35,10.20
2022,10,01,06,36,10.20
2022,10,01,06,37,10.20
2022,10,01,06,38,10.20
2022,10,01,06,39,10.20
2022,10,01,06,40,10.20
2022,10,01,06,41,10.30
2022,10,01,06,42,10.30
2022,10,01,06,43,10.40
2022,10,01,06,44,10.40
2022,10,01,06,45,10.40
2022,10,01,06,46,10.40
2022,10,01,06,47,10.50
2022,10,01,06,48,10.50
2022,10,01,06,49,10.50
2022,10,01,06,50,10.50
2022,10,01,06,51,10.60
2022,10,01,06,52,10.60
2022,10,01,06,53,10.60
2022,10,01,06,54,10.60
2022,10,01,06,55,10.60
2022,10,01,06,56,10.60
2022,10,01,06,57,10.60
2022,10,01,06,58,10.60
2022,10,01,06,59,10.60
2022,10,01,07,00,10.60
2022,10,01,07,01,10.60
2022,10,01,07,02,10.50
2022,10,01,07,03,10.50
2022,10,01,07,04,10.40
2022,10,01,07,05,10.40
2022,10,01,07,06,10.30
2022,10,01,07,07,10.30
2022,10,01,07,08,10.20
2022,10,01,07,09,10.20
2022,10,01,07,10,10.10
2022,10,01,07,11,10.10
2022,10,01,07,12,10.00
2022,10,01,07,13,10.00
2022,10,01,07,14,10.00
2022,10,01,07,15,9.90
2022,10,01,07,16,9.90
2022,10,01,07,17,9.90
2022,10,01,07,18,9.90
2022,10,01,07,19,9.90
2022,10,01,07,20,9.90
2022,10,01,07,21,9.90
2022,10,01,07,22,9.90
2022,10,01,07,23,9.90
2022,10,01,07,24,9.90
2022,10,01,07,25,10.00
2022,10,01,07,26,10.00
2022,10,01,07,27,10.00
2022,10,01,07,28,10.10
2022,10,01,07,29,10.10
2022,10,01,07,30,10.10
2022,10,01,07,31,10.20
2022,10,01,07,32,10.20
2022,10,01,07,33,10.20
2022,10,01,07,34,10.20
2022,10,01,07,35,10.30
2022,10,01,07,36,10.30
2022,10,01,07,37,10.30
2022,10,01,07,38,10.30
2022,10,01,07,39,10.30
2022,10,01,07,40,10.30
2022,10,01,07,41,10.40
2022,10,01,07,42,10.40
2022,10,01,07,43,10.40
2022,10,01,07,44,10.40
2022,10,01,07,45,10.40
2022,10,01,07,46,10.40
2022,10,01,07,47,10.40
2022,10,01,07,48,10.50
2022,10,01,07,49,10.50
2022,10,01,07,50,10.50
2022,10,01,07,51,10.50
2022,10,01,07,52,10.50
2022,10,01,07,53,10.50
2022,10,01,07,54,10.60
2022,10,01,07,55,10.60
2022,10,01,07,56,10.60
2022,10,01,07,57,10.60
2022,10,01,07,58,10.60
2022,10,01,07,59,10.60
2022,10,01,08,00,10.60
2022,10,01,08,01,10.60
2022,10,01,08,02,10.70
2022,10,01,08,03,10.70
2022,10,01,08,04,10.70
2022,10,01,08,05,10.70
2022,10,01,08,06,10.70
2022,10,01,08,07,10.80
2022,10,01,08,08,10.80
2022,10,01,08,09,10.80
2022,10,01,08,10,10.80
2022,10,01,08,11,10.80
2022,10,01,08,12,10.80
2022,10,01,08,13,10.90
2022,10,01,08,14,10.90
2022,10,01,08,15,10.90
2022,10,01,08,16,11.00
2022,10,01,08,17,11.00
2022,10,01,08,18,11.10
2022,10,01,08,19,11.10
2022,10,01,08,20,11.10
2022,10,01,08,21,11.20
2022,10,01,08,22,11.20
2022,10,01,08,23,11.20
2022,10,01,08,24,11.30
2022,10,01,08,25,11.30
2022,10,01,08,26,11.30
2022,10,01,08,27,11.40
2022,10,01,08,28,11.40
2022,10,01,08,29,11.40
2022,10,01,08,30,11.40
2022,10,01,08,31,11.50
2022,10,01,08,32,11.50
2022,10,01,08,33,11.50
2022,10,01,08,34,11.60
2022,10,01,08,35,11.60
2022,10,01,08,36,11.60
2022,10,01,08,37,11.70
2022,10,01,08,38,11.70
2022,10,01,08,39,11.70
2022,10,01,08,40,11.80
2022,10,01,08,41,11.80
2022,10,01,08,42,11.90
2022,10,01,08,43,11.90
2022,10,01,08,44,11.90
2022,10,01,08,45,11.90
2022,10,01,08,46,12.00
2022,10,01,08,47,12.00
2022,10,01,08,48,12.00
2022,10,01,08,49,12.10
2022,10,01,08,50,12.10
2022,10,01,08,51,12.10
2022,10,01,08,52,12.20
2022,10,01,08,53,12.20
2022,10,01,08,54,12.20
2022,10,01,08,55,12.30
2022,10,01,08,56,12.30
2022,10,01,08,57,12.30
2022,10,01,08,58,12.40
2022,10,01,08,59,12.40
2022,10,01,09,00,12.40
2022,10,01,09,01,12.40
2022,10,01,09,02,12.40
2022,10,01,09,03,12.40
2022,10,01,09,04,12.50
2022,10,01,09,05,12.50
2022,10,01,09,06,12.60
2022,10,01,09,07,12.70
2022,10,01,09,08,12.70
2022,10,01,09,09,12.80
2022,10,01,09,10,12.90
2022,10,01,09,11,13.00
2022,10,01,09,12,13.00
2022,10,01,09,13,13.10
2022,10,01,09,14,13.20
2022,10,01,09,15,13.30
2022,10,01,09,16,13.30
2022,10,01,09,17,13.40
2022,10,01,09,18,13.50
2022,10,01,09,19,13.60
2022,10,01,09,20,13.60
2022,10,01,09,21,13.70
2022,10,01,09,22,13.70
2022,10,01,09,23,13.80
2022,10,01,09,24,13.90
2022,10,01,09,25,14.00
2022,10,01,09,26,14.10
2022,10,01,09,27,14.10
2022,10,01,09,28,14.20
2022,10,01,09,29,14.30
2022,10,01,09,30,14.40
2022,10,01,09,31,14.50
2022,10,01,09,32,14.60
2022,10,01,09,33,14.70
2022,10,01,09,34,14.80
2022,10,01,09,35,14.90
2022,10,01,09,36,15.00
2022,10,01,09,37,15.10
2022,10,01,09,38,15.20
2022,10,01,09,39,15.30
2022,10,01,09,40,15.40
2022,10,01,09,41,15.50
2022,10,01,09,42,15.60
2022,10,01,09,43,15.70
2022,10,01,09,44,15.80
2022,10,01,09,45,16.00
2022,10,01,09,46,16.00
2022,10,01,09,47,16.10
2022,10,01,09,48,16.20
2022,10,01,09,49,16.30
2022,10,01,09,50,16.50
2022,10,01,09,51,16.60
2022,10,01,09,52,16.70
2022,10,01,09,53,16.80
2022,10,01,09,54,16.90
2022,10,01,09,55,17.00
2022,10,01,09,56,17.10
2022,10,01,09,57,17.20
2022,10,01,09,58,17.30
2022,10,01,09,59,17.40
2022,10,01,10,00,17.40
2022,10,01,10,01,17.50
2022,10,01,10,02,17.50
2022,10,01,10,03,17.60
2022,10,01,10,04,17.60
2022,10,01,10,05,17.70
2022,10,01,10,06,17.70
2022,10,01,10,07,17.80
2022,10,01,10,08,17.80
2022,10,01,10,09,17.80
2022,10,01,10,10,17.90
2022,10,01,10,11,17.90
2022,10,01,10,12,17.90
2022,10,01,10,13,18.00
2022,10,01,10,14,18.10
2022,10,01,10,15,18.10
2022,10,01,10,16,18.20
2022,10,01,10,17,18.20
2022,10,01,10,18,18.30
2022,10,01,10,19,18.30
2022,10,01,10,20,18.40
2022,10,01,10,21,18.50
2022,10,01,10,22,18.50
2022,10,01,10,23,18.60
2022,10,01,10,24,18.60
2022,10,01,10,25,18.60
2022,10,01,10,26,18.70
2022,10,01,10,27,18.70
2022,10,01,10,28,18.70
2022,10,01,10,29,18.70
2022,10,01,10,30,18.80
2022,10,01,10,31,18.80
2022,10,01,10,32,18.80
2022,10,01,10,33,18.80
2022,10,01,10,34,18.80
2022,10,01,10,35,18.80
2022,10,01,10,36,18.80
2022,10,01,10,37,18.90
2022,10,01,10,38,18.90
2022,10,01,10,39,18.90
2022,10,01,10,40,18.90
2022,10,01,10,41,19.00
2022,10,01,10,42,19.00
2022,10,01,10,43,19.00
2022,10,01,10,44,19.10
2022,10,01,10,45,19.10
2022,10,01,10,46,19.10
2022,10,01,10,47,19.10
2022,10,01,10,48,19.10
2022,10,01,10,49,19.20
2022,10,01,10,50,19.20
2022,10,01,10,51,19.30
2022,10,01,10,52,19.40
2022,10,01,10,53,19.40
2022,10,01,10,54,19.50
2022,10,01,10,55,19.50
2022,10,01,10,56,19.60
2022,10,01,10,57,19.60
2022,10,01,10,58,19.70
2022,10,01,10,59,19.80
2022,10,01,11,00,19.80
2022,10,01,11,01,19.90
2022,10,01,11,02,20.00
2022,10,01,11,03,20.10
2022,10,01,11,04,20.10
2022,10,01,11,05,20.20
2022,10,01,11,06,20.20
2022,10,01,11,07,20.20
2022,10,01,11,08,20.30
2022,10,01,11,09,20.30
2022,10,01,11,10,20.40
2022,10,01,11,11,20.40
2022,10,01,11,12,20.40
2022,10,01,11,13,20.40
2022,10,01,11,14,20.40
2022,10,01,11,15,20.40
2022,10,01,11,16,20.40
2022,10,01,11,17,20.40
2022,10,01,11,18,20.40
2022,10,01,11,19,20.40
2022,10,01,11,20,20.50
2022,10,01,11,21,20.50
2022,10,01,11,22,20.50
2022,10,01,11,23,20.50
2022,10,01,11,24,20.40
2022,10,01,11,25,20.40
2022,10,01,11,26,20.40
2022,10,01,11,27,20.40
2022,10,01,11,28,20.50
2022,10,01,11,29,20.60
2022,10,01,11,30,20.70
2022,10,01,11,31,20.70
2022,10,01,11,32,20.80
2022,10,01,11,33,20.90
2022,10,01,11,34,21.00
2022,10,01,11,35,21.00
2022,10,01,11,36,21.10
2022,10,01,11,37,21.20
2022,10,01,11,38,21.20
2022,10,01,11,39,21.20
2022,10,01,11,40,21.20
2022,10,01,11,41,21.20
2022,10,01,11,42,21.20
2022,10,01,11,43,21.20
2022,10,01,11,44,21.20
2022,10,01,11,45,21.20
2022,10,01,11,46,21.20
2022,10,01,11,47,21.20
2022,10,01,11,48,21.20
2022,10,01,11,49,21.30
2022,10,01,11,50,21.30
2022,10,01,11,51,21.30
2022,10,01,11,52,21.40
2022,10,01,11,53,21.40
2022,10,01,11,54,21.40
2022,10,01,11,55,21.30
2022,10,01,11,56,21.30
2022,10,01,11,57,21.30
2022,10,01,11,58,21.30
2022,10,01,11,59,21.30
2022,10,01,12,00,21.30
2022,10,01,12,01,21.30
2022,10,01,12,02,21.30
2022,10,01,12,03,21.30
2022,10,01,12,04,21.30
2022,10,01,12,05,21.20
2022,10,01,12,06,21.10
2022,10,01,12,07,21.10
2022,10,01,12,08,21.10
2022,10,01,12,09,21.00
2022,10,01,12,10,21.00
2022,10,01,12,11,21.00
2022,10,01,12,12,21.10
2022,10,01,12,13,21.10
2022,10,01,12,14,21.10
2022,10,01,12,15,21.10
2022,10,01,12,16,21.20
2022,10,01,12,17,21.20
2022,10,01,12,18,21.20
2022,10,01,12,19,21.20
2022,10,01,12,20,21.10
2022,10,01,12,21,21.10
2022,10,01,12,22,21.00
2022,10,01,12,23,21.00
2022,10,01,12,24,20.90
2022,10,01,12,25,20.80
2022,10,01,12,26,20.80
2022,10,01,12,27,20.90
2022,10,01,12,28,20.80
2022,10,01,12,29,20.80
2022,10,01,12,30,20.80
2022,10,01,12,31,20.80
2022,10,01,12,32,20.80
2022,10,01,12,33,20.80
2022,10,01,12,34,20.80
2022,10,01,12,35,20.80
2022,10,01,12,36,20.80
2022,10,01,12,37,20.90
2022,10,01,12,38,21.00
2022,10,01,12,39,21.00
2022,10,01,12,40,21.10
2022,10,01,12,41,21.20
2022,10,01,12,42,21.20
2022,10,01,12,43,21.30
2022,10,01,12,44,21.30
2022,10,01,12,45,21.40
2022,10,01,12,46,21.40
2022,10,01,12,47,21.50
2022,10,01,12,48,21.50
2022,10,01,12,49,21.50
2022,10,01,12,50,21.50
2022,10,01,12,51,21.60
2022,10,01,12,52,21.60
2022,10,01,12,53,21.60
2022,10,01,12,54,21.70
2022,10,01,12,55,21.70
2022,10,01,12,56,21.80
2022,10,01,12,57,21.80
2022,10,01,12,58,21.80
2022,10,01,12,59,21.80
2022,10,01,13,00,21.80
2022,10,01,13,01,21.80
2022,10,01,13,02,21.80
2022,10,01,13,03,21.80
2022,10,01,13,04,21.80
2022,10,01,13,05,21.90
2022,10,01,13,06,21.90
2022,10,01,13,07,21.80
2022,10,01,13,08,21.90
2022,10,01,13,09,21.90
2022,10,01,13,10,22.00
2022,10,01,13,11,22.00
2022,10,01,13,12,22.00
2022,10,01,13,13,22.10
2022,10,01,13,14,22.10
2022,10,01,13,15,22.20
2022,10,01,13,16,22.30
2022,10,01,13,17,22.30
2022,10,01,13,18,22.30
2022,10,01,13,19,22.30
2022,10,01,13,20,22.20
2022,10,01,13,21,22.20
2022,10,01,13,22,22.30
2022,10,01,13,23,22.30
2022,10,01,13,24,22.30
2022,10,01,13,25,22.40
2022,10,01,13,26,22.40
2022,10,01,13,27,22.40
2022,10,01,13,28,22.40
2022,10,01,13,29,22.50
2022,10,01,13,30,22.50
2022,10,01,13,31,22.50
2022,10,01,13,32,22.60
2022,10,01,13,33,22.60
2022,10,01,13,34,22.70
2022,10,01,13,35,22.70
2022,10,01,13,36,22.70
2022,10,01,13,37,22.70
2022,10,01,13,38,22.70
2022,10,01,13,39,22.70
2022,10,01,13,40,22.70
2022,10,01,13,41,22.70
2022,10,01,13,42,22.70
2022,10,01,13,43,22.70
2022,10,01,13,44,22.70
2022,10,01,13,45,22.70
2022,10,01,13,46,22.80
2022,10,01,13,47,22.80
2022,10,01,13,48,22.80
2022,10,01,13,49,22.80
2022,10,01,13,50,22.80
2022,10,01,13,51,22.80
2022,10,01,13,52,22.90
2022,10,01,13,53,22.90
2022,10,01,13,54,23.00
2022,10,01,13,55,23.10
2022,10,01,13,56,23.20
2022,10,01,13,57,23.20
2022,10,01,13,58,23.30
2022,10,01,13,59,23.30
2022,10,01,14,00,23.40
2022,10,01,14,01,23.50
2022,10,01,14,02,23.50
2022,10,01,14,03,23.60
2022,10,01,14,04,23.50
2022,10,01,14,05,23.50
2022,10,01,14,06,23.40
2022,10,01,14,07,23.40
2022,10,01,14,08,23.40
2022,10,01,14,09,23.30
2022,10,01,14,10,23.30
2022,10,01,14,11,23.30
2022,10,01,14,12,23.30
2022,10,01,14,13,23.30
2022,10,01,14,14,23.30
2022,10,01,14,15,23.20
2022,10,01,14,16,23.10
2022,10,01,14,17,23.10
2022,10,01,14,18,23.00
2022,10,01,14,19,23.00
2022,10,01,14,20,22.90
2022,10,01,14,21,22.90
2022,10,01,14,22,22.80
2022,10,01,14,23,22.90
2022,10,01,14,24,22.90
2022,10,01,14,25,22.90
2022,10,01,14,26,22.90
2022,10,01,14,27,23.00
2022,10,01,14,28,23.00
2022,10,01,14,29,23.10
2022,10,01,14,30,23.20
2022,10,01,14,31,23.30
2022,10,01,14,32,23.30
2022,10,01,14,33,23.30
2022,10,01,14,34,23.40
2022,10,01,14,35,23.40
2022,10,01,14,36,23.40
2022,10,01,14,37,23.50
2022,10,01,14,38,23.50
2022,10,01,14,39,23.60
2022,10,01,14,40,23.50
2022,10,01,14,41,23.50
2022,10,01,14,42,23.50
2022,10,01,14,43,23.40
2022,10,01,14,44,23.40
2022,10,01,14,45,23.50
2022,10,01,14,46,23.50
2022,10,01,14,47,23.50
2022,10,01,14,48,23.50
2022,10,01,14,49,23.50
2022,10,01,14,50,23.40
2022,10,01,14,51,23.50
2022,10,01,14,52,23.50
2022,10,01,14,53,23.50
2022,10,01,14,54,23.50
2022,10,01,14,55,23.50
2022,10,01,14,56,23.50
2022,10,01,14,57,23.50
2022,10,01,14,58,23.50
2022,10,01,14,59,23.50
2022,10,01,15,00,23.50
2022,10,01,15,01,23.50
2022,10,01,15,02,23.50
2022,10,01,15,03,23.40
2022,10,01,15,04,23.30
2022,10,01,15,05,23.20
2022,10,01,15,06,23.20
2022,10,01,15,07,23.10
2022,10,01,15,08,23.10
2022,10,01,15,09,23.10
2022,10,01,15,10,23.10
2022,10,01,15,11,23.20
2022,10,01,15,12,23.10
2022,10,01,15,13,23.10
2022,10,01,15,14,23.10
2022,10,01,15,15,23.10
2022,10,01,15,16,23.10
2022,10,01,15,17,23.10
2022,10,01,15,18,23.10
2022,10,01,15,19,23.10
2022,10,01,15,20,23.10
2022,10,01,15,21,23.10
2022,10,01,15,22,23.10
2022,10,01,15,23,23.10
2022,10,01,15,24,23.10
2022,10,01,15,25,23.10
2022,10,01,15,26,23.20
2022,10,01,15,27,23.20
2022,10,01,15,28,23.20
2022,10,01,15,29,23.20
2022,10,01,15,30,23.20
2022,10,01,15,31,23.20
2022,10,01,15,32,23.20
2022,10,01,15,33,23.20
2022,10,01,15,34,23.20
2022,10,01,15,35,23.30
2022,10,01,15,36,23.30
2022,10,01,15,37,23.30
2022,10,01,15,38,23.40
2022,10,01,15,39,23.40
2022,10,01,15,40,23.40
2022,10,01,15,41,23.50
2022,10,01,15,42,23.50
2022,10,01,15,43,23.60
2022,10,01,15,44,23.60
2022,10,01,15,45,23.60
2022,10,01,15,46,23.60
2022,10,01,15,47,23.70
2022,10,01,15,48,23.70
2022,10,01,15,49,23.80
2022,10,01,15,50,23.80
2022,10,01,15,51,23.80
2022,10,01,15,52,23.90
2022,10,01,15,53,24.00
2022,10,01,15,54,24.00
2022,10,01,15,55,24.10
2022,10,01,15,56,24.10
2022,10,01,15,57,24.10
2022,10,01,15,58,24.10
2022,10,01,15,59,24.20
2022,10,01,16,00,24.20
2022,10,01,16,01,24.20
2022,10,01,16,02,24.30
2022,10,01,16,03,24.30
2022,10,01,16,04,24.30
2022,10,01,16,05,24.30
2022,10,01,16,06,24.30
2022,10,01,16,07,24.30
2022,10,01,16,08,24.40
2022,10,01,16,09,24.40
2022,10,01,16,10,24.40
2022,10,01,16,11,24.50
2022,10,01,16,12,24.50
2022,10,01,16,13,24.50
2022,10,01,16,14,24.60
2022,10,01,16,15,24.60
2022,10,01,16,16,24.60
2022,10,01,16,17,24.60
2022,10,01,16,18,24.70
2022,10,01,16,19,24.70
2022,10,01,16,20,24.70
2022,10,01,16,21,24.70
2022,10,01,16,22,24.70
2022,10,01,16,23,24.70
2022,10,01,16,24,24.50
2022,10,01,16,25,24.40
2022,10,01,16,26,24.10
2022,10,01,16,27,23.80
2022,10,01,16,28,23.40
2022,10,01,16,29,22.90
2022,10,01,16,30,22.50
2022,10,01,16,31,22.10
2022,10,01,16,32,21.60
2022,10,01,16,33,21.10
2022,10,01,16,34,20.60
2022,10,01,16,35,20.30
2022,10,01,16,36,20.10
2022,10,01,16,37,19.90
2022,10,01,16,38,19.80
2022,10,01,16,39,19.60
2022,10,01,16,40,19.50
2022,10,01,16,41,19.40
2022,10,01,16,42,19.30
2022,10,01,16,43,19.30
2022,10,01,16,44,19.30
2022,10,01,16,45,19.30
2022,10,01,16,46,19.30
2022,10,01,16,47,19.30
2022,10,01,16,48,19.30
2022,10,01,16,49,19.30
2022,10,01,16,50,19.30
2022,10,01,16,51,19.30
2022,10,01,16,52,19.40
2022,10,01,16,53,19.50
2022,10,01,16,54,19.50
2022,10,01,16,55,19.50
2022,10,01,16,56,19.60
2022,10,01,16,57,19.50
2022,10,01,16,58,19.50
2022,10,01,16,59,19.50
2022,10,01,17,00,19.60
2022,10,01,17,01,19.60
2022,10,01,17,02,19.60
2022,10,01,17,03,19.70
2022,10,01,17,04,19.70
2022,10,01,17,05,19.70
2022,10,01,17,06,19.70
2022,10,01,17,07,19.60
2022,10,01,17,08,19.60
2022,10,01,17,09,19.60
2022,10,01,17,10,19.60
2022,10,01,17,11,19.60
2022,10,01,17,12,19.60
2022,10,01,17,13,19.60
2022,10,01,17,14,19.70
2022,10,01,17,15,19.70
2022,10,01,17,16,19.70
2022,10,01,17,17,19.70
2022,10,01,17,18,19.70
2022,10,01,17,19,19.70
2022,10,01,17,20,19.70